Regional Weather Roundup
Issued by NWS

Home | Current Version | Previous Version | Graphics & Text | Print | Product List | Glossary On
Versions: 1 2 3 4 5 6 7 8 9 10 11 12 13 14 15 16 17 18 19 20 21 22 23 24 25 26 27 28 29 30 31 32 33 34 35 36 37 38 39 40 41 42 43 44 45 46 47 48 49 50
000
ASUS43 KOAX 291110
RWRNE

WEATHER ROUNDUP FOR NEBRASKA
NATIONAL WEATHER SERVICE OMAHA NE
600 AM CDT FRI AUG 29 2014

NOTES: SATELLITE DATA IS BEING USED TO AUGMENT CLOUD COVER ABOVE
       12000 FEET.
       "FAIR" INDICATES FEW OR NO CLOUDS BELOW 12,000 FEET WITH NO
       SIGNIFICANT WEATHER AND/OR OBSTRUCTIONS TO VISIBILITY.

  * THESE STATIONS DO NOT REPORT WEATHER SUCH AS RAIN...SNOW OR FOG.

NEZ001>004-019>022-054>056-291200-
NEBRASKA PANHANDLE

CITY           SKY/WX    TMP DP  RH WIND       PRES   REMARKS
SCOTTSBLUFF    CLEAR     49  48  97 NW8       29.98S
ALLIANCE       CLEAR     50  48  93 W8        29.95S
CHADRON        CLEAR     53  51  93 SW6       29.93R
KIMBALL        CLEAR     50  47  92 W7        30.02S
SIDNEY         CLEAR     52  47  83 W8        30.00S
$$

NEZ057>060-069>072-079>082-291200-
SOUTHWEST NEBRASKA

CITY           SKY/WX    TMP DP  RH WIND       PRES   REMARKS
NORTH PLATTE   CLEAR     54  52  93 CALM      29.90S
IMPERIAL       CLEAR     57  52  83 NW9       29.93F
LEXINGTON      PTCLDY    60  59  95 NW5       29.86S
MCCOOK         CLEAR     58  55  90 W7        29.90R
OGALLALA       CLEAR     50  49  97 W3        29.94S
$$

NEZ005>010-023>029-035>040-094-291200-
NORTH CENTRAL NEBRASKA

CITY           SKY/WX    TMP DP  RH WIND       PRES   REMARKS
VALENTINE      PTCLDY    57  57 100 W7        29.87S
AINSWORTH      CLEAR     59  58  97 W5        29.86F
BROKEN BOW     CLEAR     61  57  87 CALM      29.86S
O`NEILL        MOCLDY    63  63  99 W3        29.82S
ORD            MOCLDY    60  59  96 NW3       29.82S
THEDFORD       CLEAR     56  55  95 W6        29.90R
$$

NEZ041-046>049-061>064-073>077-083>087-291200-
SOUTH CENTRAL NEBRASKA

CITY           SKY/WX    TMP DP  RH WIND       PRES   REMARKS
GRAND ISLAND   CLOUDY    66  64  93 CALM      29.82F
AURORA         CLOUDY    66  65  99 W3        29.82R
HASTINGS       CLOUDY    67  63  87 N7        29.81F
HEBRON         CLOUDY    68  64  88 CALM      29.80S
HOLDREGE       MOCLDY    63  61  94 CALM      29.85R
KEARNEY *      CLOUDY    63  61  94 NW6       29.84S
YORK           CLOUDY    68 N/A N/A S5        29.80S
$$

NEZ011>018-030>034-042>045-291200-
NORTHEAST NEBRASKA

CITY           SKY/WX    TMP DP  RH WIND       PRES   REMARKS
NORFOLK        CLOUDY    68  66  93 W5        29.79F
ALBION         CLOUDY    64  62  94 CALM      29.82S
BLAIR          MOCLDY    71  68  90 SE3       29.80R
FREMONT        MOCLDY    72  67  85 S6        29.79S
TEKAMAH        MOCLDY    71  69  93 SE6       29.78S
WAYNE          CLOUDY    69  67  94 CALM      29.79F
$$

NEZ050>053-065>068-078-088>093-291200-
SOUTHEAST NEBRASKA

CITY           SKY/WX    TMP DP  RH WIND       PRES   REMARKS
LINCOLN        CLOUDY    72  66  81 CALM      29.79F
OMAHA EPPLEY   MOCLDY    71  69  93 SE7       29.79F
BEATRICE       CLOUDY    70  66  87 S8        29.81R
FALLS CITY     MOCLDY    70  67  90 E6        29.81S
NEBRASKA CITY  CLOUDY    71  71 100 S5        29.81S
PLATTSMOUTH    MOCLDY    72  70  94 CALM      29.81S FOG
$$

NEZ044-045-051>053-067-291200-
OMAHA AREA

CITY           SKY/WX    TMP DP  RH WIND       PRES   REMARKS
OMAHA EPPLEY   MOCLDY    71  69  93 SE7       29.79F
BLAIR          MOCLDY    71  68  90 SE3       29.80R
FREMONT        MOCLDY    72  67  85 S6        29.79S
MILLARD        CLOUDY    72  70  95 SE3       29.79R FOG
OFFUTT AFB     MOCLDY    72  72 100 SE7       29.79F
PLATTSMOUTH    MOCLDY    72  70  94 CALM      29.81S FOG
WAHOO          FAIR      70  67  89 SW5       29.79S
$$



USA.gov is the U.S. government's official web portal to all federal, state and local government web resources and services.